TimeMDT,TemperatureF,Dew PointF,Humidity,Sea Level PressureIn,VisibilityMPH,Wind Direction,Wind SpeedMPH,Gust SpeedMPH,PrecipitationIn,Events,Conditions,WindDirDegrees,DateUTC
12:51 AM,48.0,27.0,44,30.05,10.0,NE,4.6,-,N/A,,Clear,40,2012-09-02 06:51:00
1:51 AM,45.0,30.9,58,30.06,10.0,WSW,3.5,-,N/A,,Clear,240,2012-09-02 07:51:00
2:51 AM,43.0,28.9,58,30.07,10.0,Calm,Calm,-,N/A,,Clear,0,2012-09-02 08:51:00
3:51 AM,39.0,27.0,62,30.08,10.0,Calm,Calm,-,N/A,,Clear,0,2012-09-02 09:51:00
4:51 AM,36.0,28.9,76,30.09,10.0,Calm,Calm,-,N/A,,Clear,0,2012-09-02 10:51:00
5:51 AM,37.0,25.0,62,30.09,10.0,Calm,Calm,-,N/A,,Clear,0,2012-09-02 11:51:00
6:51 AM,35.1,25.0,67,30.11,10.0,Calm,Calm,-,N/A,,Clear,0,2012-09-02 12:51:00
7:51 AM,37.0,27.0,67,30.14,10.0,Calm,Calm,-,N/A,,Clear,0,2012-09-02 13:51:00
8:51 AM,44.1,26.1,49,30.13,10.0,Calm,Calm,-,N/A,,Clear,0,2012-09-02 14:51:00
9:51 AM,51.1,28.9,43,30.14,10.0,Calm,Calm,-,N/A,,Clear,0,2012-09-02 15:51:00
10:51 AM,57.0,30.9,37,30.12,10.0,Calm,Calm,-,N/A,,Clear,0,2012-09-02 16:51:00
11:51 AM,63.0,28.9,28,30.10,10.0,South,4.6,-,N/A,,Clear,180,2012-09-02 17:51:00
12:51 PM,68.0,19.9,16,30.09,10.0,South,9.2,-,N/A,,Clear,180,2012-09-02 18:51:00
1:51 PM,71.1,14.0,11,30.07,10.0,South,6.9,17.3,N/A,,Clear,180,2012-09-02 19:51:00
2:51 PM,73.0,8.1,8,30.06,10.0,SSE,12.7,18.4,N/A,,Clear,160,2012-09-02 20:51:00
3:51 PM,73.0,7.0,8,30.05,10.0,SSE,12.7,-,N/A,,Clear,160,2012-09-02 21:51:00
4:51 PM,73.0,9.0,8,30.05,10.0,South,9.2,17.3,N/A,,Clear,180,2012-09-02 22:51:00
5:51 PM,72.0,9.0,9,30.06,10.0,South,6.9,-,N/A,,Clear,180,2012-09-02 23:51:00
6:51 PM,70.0,8.1,9,30.06,10.0,West,4.6,-,N/A,,Clear,260,2012-09-03 00:51:00
7:51 PM,69.1,10.0,10,30.06,10.0,WSW,3.5,-,N/A,,Clear,250,2012-09-03 01:51:00
8:51 PM,61.0,19.0,20,30.06,10.0,ENE,4.6,-,N/A,,Clear,60,2012-09-03 02:51:00
9:51 PM,55.9,16.0,21,30.07,10.0,Calm,Calm,-,N/A,,Clear,0,2012-09-03 03:51:00
10:51 PM,53.1,28.0,38,30.07,10.0,NE,5.8,-,N/A,,Clear,50,2012-09-03 04:51:00
11:51 PM,46.9,25.0,42,30.08,10.0,Calm,Calm,-,N/A,,Clear,0,2012-09-03 05:51:00